OAL114 LSZA-LGAV

Flight info

Callsign OAL114
Flight time 2h 7m
Altitude FL390
Route SRN BOA ANC VIE BCS NOSTO UN7 NEMES
Aircraft B737/M-SDE3FGHIRWY/LB1

Departure

Time 2026-04-20 19:03
Airport Lugano Airport (LSZA)

Arrival

Time 2026-04-20 21:10
Airport Athens Eleftherios Venizelos International Airport (LGAV)
Time Latitude Longitude Altitude Speed Heading
2026-04-20 18:46 46.00243 8.90807 923 ft 0 kts 19°
2026-04-20 18:57 46.00253 8.90812 908 ft 5 kts 19°
2026-04-20 18:58 46.00264 8.90854 928 ft 5 kts 88°
2026-04-20 18:58 46.00296 8.90885 923 ft 6 kts 18°
2026-04-20 18:58 46.00348 8.90909 923 ft 9 kts 18°
2026-04-20 18:58 46.00413 8.90940 923 ft 10 kts 18°
2026-04-20 18:59 46.00457 8.90977 926 ft 7 kts 68°
2026-04-20 18:59 46.00449 8.91041 926 ft 7 kts 95°
2026-04-20 18:59 46.00484 8.91087 926 ft 9 kts 24°
2026-04-20 18:59 46.00556 8.91124 924 ft 13 kts 18°
2026-04-20 19:00 46.00643 8.91166 925 ft 14 kts 18°
2026-04-20 19:00 46.00730 8.91209 923 ft 13 kts 19°
2026-04-20 19:00 46.00815 8.91251 921 ft 13 kts 19°
2026-04-20 19:00 46.00897 8.91290 923 ft 12 kts 18°
2026-04-20 19:01 46.00977 8.91327 923 ft 12 kts 17°
2026-04-20 19:01 46.01049 8.91339 924 ft 6 kts 34°
2026-04-20 19:01 46.01038 8.91362 926 ft 4 kts 195°
2026-04-20 19:01 46.01014 8.91346 921 ft 3 kts 201°
2026-04-20 19:02 46.01013 8.91346 921 ft 0 kts 200°
2026-04-20 19:02 46.00997 8.91337 921 ft 12 kts 200°
2026-04-20 19:02 46.00603 8.91143 923 ft 108 kts 198°
2026-04-20 19:02 45.99643 8.90661 1073 ft 173 kts 200°
2026-04-20 19:03 45.98539 8.90062 2241 ft 164 kts 204°
2026-04-20 19:03 45.97512 8.89353 3316 ft 173 kts 206°
2026-04-20 19:03 45.96342 8.88542 3780 ft 205 kts 205°
2026-04-20 19:03 45.94956 8.87603 4065 ft 236 kts 206°
2026-04-20 19:04 45.93368 8.86714 4495 ft 260 kts 186°
2026-04-20 19:04 45.91541 8.87031 5271 ft 271 kts 172°
2026-04-20 19:04 45.89687 8.86705 6338 ft 272 kts 201°
2026-04-20 19:04 45.87900 8.85790 7374 ft 277 kts 192°
2026-04-20 19:05 45.85974 8.85968 8274 ft 286 kts 159°
2026-04-20 19:05 45.84175 8.87207 9278 ft 291 kts 152°
2026-04-20 19:05 45.82381 8.88607 10203 ft 298 kts 152°
2026-04-20 19:05 45.80496 8.90082 10614 ft 324 kts 152°
2026-04-20 19:06 45.78445 8.91657 11123 ft 342 kts 153°
2026-04-20 19:06 45.76323 8.93268 11953 ft 350 kts 153°
2026-04-20 19:06 45.74153 8.94908 12865 ft 356 kts 153°
2026-04-20 19:06 45.71953 8.96576 13739 ft 363 kts 154°
2026-04-20 19:07 45.69709 8.98281 14506 ft 369 kts 154°
2026-04-20 19:07 45.67426 9.00012 15307 ft 375 kts 154°
2026-04-20 19:07 45.65108 9.01767 16108 ft 381 kts 155°
2026-04-20 19:07 45.62753 9.03552 16901 ft 387 kts 155°
2026-04-20 19:08 45.60358 9.05384 17649 ft 394 kts 155°
2026-04-20 19:08 45.55489 9.09153 19137 ft 404 kts 155°
2026-04-20 19:08 45.53151 9.11425 19854 ft 414 kts 140°
2026-04-20 19:09 45.51247 9.14530 20583 ft 422 kts 124°
2026-04-20 19:09 45.49739 9.18128 21325 ft 426 kts 121°
2026-04-20 19:09 45.48221 9.21769 22004 ft 431 kts 122°
2026-04-20 19:09 45.46662 9.25435 22670 ft 436 kts 122°
2026-04-20 19:10 45.45067 9.29125 23349 ft 441 kts 123°
2026-04-20 19:10 45.43443 9.32839 23925 ft 445 kts 123°
2026-04-20 19:10 45.41794 9.36582 24463 ft 450 kts 123°
2026-04-20 19:10 45.40121 9.40361 25067 ft 455 kts 124°
2026-04-20 19:11 45.38427 9.44179 25566 ft 460 kts 124°
2026-04-20 19:11 45.36715 9.48031 26074 ft 464 kts 124°
2026-04-20 19:11 45.34987 9.51916 26587 ft 468 kts 124°
2026-04-20 19:11 45.33243 9.55832 27088 ft 472 kts 124°
2026-04-20 19:12 45.31483 9.59781 27570 ft 476 kts 124°
2026-04-20 19:12 45.29706 9.63763 28039 ft 480 kts 124°
2026-04-20 19:12 45.27913 9.67774 28487 ft 484 kts 124°
2026-04-20 19:12 45.26105 9.71816 28920 ft 488 kts 124°
2026-04-20 19:13 45.24278 9.75890 29317 ft 492 kts 125°
2026-04-20 19:13 45.22436 9.79995 29732 ft 496 kts 125°
2026-04-20 19:13 45.20580 9.84126 30109 ft 499 kts 125°
2026-04-20 19:13 45.18710 9.88280 30448 ft 502 kts 125°
2026-04-20 19:14 45.16830 9.92452 30810 ft 504 kts 125°
2026-04-20 19:14 45.14939 9.96641 31145 ft 507 kts 125°
2026-04-20 19:14 45.13039 10.00845 31450 ft 508 kts 125°
2026-04-20 19:14 45.11135 10.05052 31848 ft 509 kts 125°
2026-04-20 19:15 45.09223 10.09270 32140 ft 511 kts 125°
2026-04-20 19:15 45.07301 10.13501 32459 ft 513 kts 125°
2026-04-20 19:15 45.05378 10.17731 32863 ft 512 kts 125°
2026-04-20 19:15 45.03458 10.21948 33289 ft 510 kts 125°
2026-04-20 19:16 45.01540 10.26154 33679 ft 510 kts 125°
2026-04-20 19:16 44.99621 10.30356 33975 ft 510 kts 125°
2026-04-20 19:16 44.97701 10.34551 34292 ft 510 kts 125°
2026-04-20 19:16 44.95776 10.38753 34631 ft 509 kts 125°
2026-04-20 19:17 44.93858 10.42934 34975 ft 508 kts 125°
2026-04-20 19:17 44.91943 10.47102 35289 ft 507 kts 125°
2026-04-20 19:17 44.90029 10.51262 35577 ft 506 kts 125°
2026-04-20 19:17 44.88116 10.55414 35866 ft 505 kts 125°
2026-04-20 19:18 44.86208 10.59549 36200 ft 503 kts 125°
2026-04-20 19:18 44.84303 10.63671 36490 ft 503 kts 125°
2026-04-20 19:18 44.82400 10.67781 36736 ft 503 kts 125°
2026-04-20 19:18 44.80490 10.71902 37007 ft 502 kts 125°
2026-04-20 19:19 44.78584 10.76009 37295 ft 502 kts 125°
2026-04-20 19:19 44.76683 10.80098 37566 ft 501 kts 125°
2026-04-20 19:19 44.74778 10.84191 37828 ft 500 kts 125°
2026-04-20 19:19 44.72879 10.88264 38081 ft 499 kts 125°
2026-04-20 19:20 44.70978 10.92338 38353 ft 498 kts 125°
2026-04-20 19:20 44.69081 10.96396 38618 ft 497 kts 125°
2026-04-20 19:20 44.67185 11.00447 38796 ft 497 kts 125°
2026-04-20 19:20 44.65286 11.04497 38921 ft 498 kts 125°
2026-04-20 19:21 44.63386 11.08545 38960 ft 498 kts 125°
2026-04-20 19:21 44.59580 11.16637 38976 ft 497 kts 125°
2026-04-20 19:22 44.55776 11.24707 38980 ft 496 kts 125°
2026-04-20 19:22 44.52041 11.32808 38884 ft 496 kts 123°
2026-04-20 19:23 44.48544 11.41107 38885 ft 496 kts 121°
2026-04-20 19:23 44.45087 11.49448 38912 ft 496 kts 121°
2026-04-20 19:24 44.41593 11.57774 38931 ft 497 kts 122°
2026-04-20 19:24 44.38073 11.66074 38940 ft 497 kts 122°
2026-04-20 19:25 44.34540 11.74360 38967 ft 498 kts 122°
2026-04-20 19:25 44.30994 11.82655 38960 ft 499 kts 122°
2026-04-20 19:26 44.27438 11.90953 38923 ft 499 kts 122°
2026-04-20 19:26 44.23872 11.99253 38913 ft 500 kts 122°
2026-04-20 19:27 44.20297 12.07550 38912 ft 500 kts 122°
2026-04-20 19:27 44.16713 12.15842 38912 ft 501 kts 122°
2026-04-20 19:28 44.13124 12.24123 38916 ft 500 kts 122°
2026-04-20 19:28 44.09530 12.32392 38914 ft 500 kts 122°
2026-04-20 19:29 44.05932 12.40646 38914 ft 500 kts 122°
2026-04-20 19:29 44.02331 12.48883 38911 ft 499 kts 122°
2026-04-20 19:30 43.98726 12.57105 38910 ft 499 kts 123°
2026-04-20 19:30 43.95118 12.65312 38913 ft 499 kts 123°
2026-04-20 19:31 43.91505 12.73505 38914 ft 499 kts 123°
2026-04-20 19:31 43.87889 12.81684 38907 ft 498 kts 122°
2026-04-20 19:32 43.84270 12.89847 38921 ft 498 kts 123°
2026-04-20 19:32 43.80644 12.97999 38925 ft 498 kts 123°
2026-04-20 19:33 43.77012 13.06145 38927 ft 498 kts 123°
2026-04-20 19:33 43.73373 13.14283 38934 ft 499 kts 123°
2026-04-20 19:34 43.69723 13.22424 38923 ft 500 kts 123°
2026-04-20 19:34 43.66062 13.30567 38912 ft 500 kts 123°
2026-04-20 19:35 43.62394 13.38705 38899 ft 500 kts 123°
2026-04-20 19:35 43.58707 13.46819 38931 ft 500 kts 125°
2026-04-20 19:36 43.54386 13.54252 38944 ft 497 kts 133°
2026-04-20 19:36 43.49817 13.61386 38934 ft 498 kts 134°
2026-04-20 19:37 43.45255 13.68534 38934 ft 498 kts 133°
2026-04-20 19:37 43.40727 13.75723 38936 ft 498 kts 133°
2026-04-20 19:38 43.36217 13.82916 38937 ft 498 kts 133°
2026-04-20 19:38 43.31699 13.90107 38942 ft 498 kts 133°
2026-04-20 19:39 43.27177 13.97282 38946 ft 498 kts 133°
2026-04-20 19:39 43.22653 14.04439 38946 ft 498 kts 133°
2026-04-20 19:40 43.18119 14.11593 38946 ft 498 kts 133°
2026-04-20 19:40 43.13575 14.18744 38929 ft 498 kts 133°
2026-04-20 19:41 43.09035 14.25872 38948 ft 498 kts 133°
2026-04-20 19:41 43.04482 14.33004 38948 ft 498 kts 133°
2026-04-20 19:42 42.99927 14.40121 38953 ft 499 kts 133°
2026-04-20 19:42 42.95369 14.47224 38949 ft 499 kts 133°
2026-04-20 19:43 42.91564 14.53141 38951 ft 499 kts 133°
2026-04-20 19:43 42.86233 14.61411 38945 ft 498 kts 133°
2026-04-20 19:44 42.81663 14.68483 38951 ft 498 kts 133°
2026-04-20 19:44 42.77086 14.75547 38951 ft 498 kts 133°
2026-04-20 19:45 42.72510 14.82592 38950 ft 498 kts 133°
2026-04-20 19:45 42.67933 14.89624 38948 ft 498 kts 133°
2026-04-20 19:46 42.63352 14.96644 38939 ft 498 kts 134°
2026-04-20 19:46 42.58764 15.03657 38949 ft 498 kts 134°
2026-04-20 19:47 42.54171 15.10661 38946 ft 498 kts 134°
2026-04-20 19:47 42.49571 15.17658 38946 ft 498 kts 134°
2026-04-20 19:48 42.44964 15.24651 38940 ft 498 kts 134°
2026-04-20 19:48 42.40350 15.31636 38944 ft 499 kts 134°
2026-04-20 19:49 42.35729 15.38616 38935 ft 499 kts 134°
2026-04-20 19:49 42.31104 15.45585 38941 ft 499 kts 134°
2026-04-20 19:50 42.26474 15.52546 38940 ft 499 kts 134°
2026-04-20 19:50 42.21840 15.59496 38940 ft 499 kts 134°
2026-04-20 19:51 42.17194 15.66447 38964 ft 500 kts 134°
2026-04-20 19:51 42.12545 15.73387 38959 ft 500 kts 134°
2026-04-20 19:52 42.07897 15.80309 38980 ft 500 kts 134°
2026-04-20 19:52 42.03238 15.87231 38988 ft 500 kts 134°
2026-04-20 19:53 41.98578 15.94139 38953 ft 500 kts 134°
2026-04-20 19:53 41.93919 16.01031 38959 ft 500 kts 134°
2026-04-20 19:54 41.89272 16.07954 38956 ft 500 kts 133°
2026-04-20 19:54 41.84757 16.15006 38947 ft 499 kts 132°
2026-04-20 19:55 41.80269 16.22083 38959 ft 498 kts 132°
2026-04-20 19:55 41.75771 16.29119 38962 ft 498 kts 132°
2026-04-20 19:56 41.71261 16.36127 38968 ft 498 kts 132°
2026-04-20 19:56 41.66748 16.43112 38963 ft 497 kts 132°
2026-04-20 19:57 41.62225 16.50097 38963 ft 497 kts 132°
2026-04-20 19:57 41.57705 16.57064 38964 ft 497 kts 132°
2026-04-20 19:58 41.53183 16.64020 38964 ft 497 kts 132°
2026-04-20 19:58 41.48661 16.70957 38972 ft 497 kts 132°
2026-04-20 19:59 41.44130 16.77894 38965 ft 497 kts 132°
2026-04-20 19:59 41.39593 16.84823 38966 ft 497 kts 132°
2026-04-20 20:00 41.35049 16.91746 38947 ft 497 kts 133°
2026-04-20 20:00 41.30502 16.98659 38965 ft 497 kts 133°
2026-04-20 20:01 41.25956 17.05553 38977 ft 497 kts 133°
2026-04-20 20:01 41.21401 17.12446 38969 ft 498 kts 133°
2026-04-20 20:02 41.16839 17.19334 38969 ft 498 kts 133°
2026-04-20 20:02 41.12273 17.26213 38973 ft 498 kts 133°
2026-04-20 20:03 41.07700 17.33085 38959 ft 498 kts 133°
2026-04-20 20:03 41.03129 17.39939 38973 ft 497 kts 133°
2026-04-20 20:04 40.98555 17.46781 38980 ft 497 kts 133°
2026-04-20 20:04 40.93981 17.53609 38977 ft 497 kts 133°
2026-04-20 20:05 40.89410 17.60417 38978 ft 496 kts 133°
2026-04-20 20:05 40.84834 17.67218 38975 ft 496 kts 133°
2026-04-20 20:06 40.80253 17.74011 38958 ft 496 kts 133°
2026-04-20 20:06 40.75679 17.80777 38974 ft 495 kts 133°
2026-04-20 20:07 40.71102 17.87535 38972 ft 495 kts 133°
2026-04-20 20:07 40.66524 17.94280 38966 ft 495 kts 133°
2026-04-20 20:08 40.61716 18.00711 38972 ft 493 kts 138°
2026-04-20 20:08 40.56738 18.06894 38966 ft 493 kts 139°
2026-04-20 20:09 40.51760 18.13073 38967 ft 493 kts 138°
2026-04-20 20:09 40.46806 18.19277 38988 ft 493 kts 138°
2026-04-20 20:10 40.41860 18.25490 39000 ft 493 kts 138°
2026-04-20 20:10 40.36910 18.31698 38992 ft 493 kts 138°
2026-04-20 20:11 40.31955 18.37895 38997 ft 494 kts 138°
2026-04-20 20:11 40.26987 18.44093 38980 ft 494 kts 138°
2026-04-20 20:12 40.22020 18.50276 38994 ft 494 kts 138°
2026-04-20 20:12 40.17056 18.56442 39001 ft 493 kts 138°
2026-04-20 20:13 40.09597 18.65685 39004 ft 493 kts 138°
2026-04-20 20:13 40.04629 18.71825 39016 ft 493 kts 138°
2026-04-20 20:14 39.99654 18.77960 39008 ft 493 kts 138°
2026-04-20 20:14 39.94675 18.84088 39021 ft 493 kts 138°
2026-04-20 20:15 39.89699 18.90199 39019 ft 492 kts 138°
2026-04-20 20:15 39.84723 18.96300 39021 ft 492 kts 138°
2026-04-20 20:16 39.80015 19.02736 39018 ft 494 kts 127°
2026-04-20 20:16 39.76009 19.09952 39023 ft 494 kts 126°
2026-04-20 20:17 39.72042 19.17212 39014 ft 494 kts 126°
2026-04-20 20:17 39.68037 19.24428 39024 ft 493 kts 126°
2026-04-20 20:18 39.64003 19.31614 39023 ft 493 kts 127°
2026-04-20 20:18 39.62219 19.34781 39025 ft 493 kts 127°
2026-04-20 20:20 39.61909 19.35331 39027 ft 493 kts 127°
2026-04-20 20:20 39.57865 19.42496 39024 ft 493 kts 127°
2026-04-20 20:21 39.53818 19.49655 39033 ft 493 kts 127°
2026-04-20 20:21 39.49766 19.56810 39020 ft 494 kts 127°
2026-04-20 20:22 39.45714 19.63950 39024 ft 493 kts 127°
2026-04-20 20:22 39.41655 19.71085 39013 ft 493 kts 127°
2026-04-20 20:23 39.37597 19.78203 39031 ft 493 kts 127°
2026-04-20 20:23 39.33532 19.85316 39038 ft 493 kts 127°
2026-04-20 20:24 39.29466 19.92416 39032 ft 493 kts 127°
2026-04-20 20:24 39.25395 19.99510 39035 ft 493 kts 127°
2026-04-20 20:25 39.21323 20.06589 39035 ft 493 kts 127°
2026-04-20 20:25 39.17246 20.13664 39047 ft 493 kts 127°
2026-04-20 20:26 39.13161 20.20737 39048 ft 493 kts 127°
2026-04-20 20:26 39.09085 20.27806 39036 ft 493 kts 127°
2026-04-20 20:27 39.05024 20.34881 39054 ft 492 kts 127°
2026-04-20 20:27 39.00961 20.41947 39056 ft 492 kts 127°
2026-04-20 20:28 38.96891 20.49004 39068 ft 492 kts 127°
2026-04-20 20:28 38.92817 20.56049 39060 ft 493 kts 128°
2026-04-20 20:29 38.88731 20.63104 39047 ft 493 kts 128°
2026-04-20 20:29 38.84630 20.70131 39050 ft 493 kts 128°
2026-04-20 20:30 38.80496 20.77125 39053 ft 493 kts 128°
2026-04-20 20:30 38.76353 20.84113 39050 ft 493 kts 128°
2026-04-20 20:31 38.72215 20.91093 39061 ft 493 kts 128°
2026-04-20 20:31 38.68077 20.98064 39057 ft 492 kts 128°
2026-04-20 20:32 38.63940 21.05019 39066 ft 492 kts 128°
2026-04-20 20:32 38.59803 21.11957 39057 ft 492 kts 128°
2026-04-20 20:33 38.55662 21.18888 39072 ft 491 kts 128°
2026-04-20 20:33 38.51524 21.25799 39059 ft 490 kts 128°
2026-04-20 20:34 38.47391 21.32688 39050 ft 489 kts 128°
2026-04-20 20:34 38.43261 21.39555 39066 ft 488 kts 128°
2026-04-20 20:35 38.39131 21.46411 39070 ft 489 kts 128°
2026-04-20 20:35 38.34995 21.53259 39073 ft 489 kts 128°
2026-04-20 20:36 38.30853 21.60105 39071 ft 489 kts 129°
2026-04-20 20:36 38.26702 21.66949 39070 ft 490 kts 129°
2026-04-20 20:37 38.22543 21.73794 39070 ft 490 kts 129°
2026-04-20 20:37 38.18373 21.80642 39083 ft 491 kts 129°
2026-04-20 20:38 38.14187 21.87501 39063 ft 492 kts 129°
2026-04-20 20:38 38.09992 21.94361 39065 ft 493 kts 129°
2026-04-20 20:39 38.05789 22.01220 39070 ft 493 kts 129°
2026-04-20 20:39 38.01580 22.08076 39065 ft 494 kts 129°
2026-04-20 20:40 37.97362 22.14929 39077 ft 494 kts 129°
2026-04-20 20:40 37.93135 22.21785 39067 ft 495 kts 129°
2026-04-20 20:41 37.88903 22.28635 39063 ft 495 kts 129°
2026-04-20 20:41 37.84664 22.35481 39063 ft 495 kts 129°
2026-04-20 20:42 37.80430 22.42305 39074 ft 493 kts 129°
2026-04-20 20:42 37.76205 22.49103 39055 ft 492 kts 130°
2026-04-20 20:43 37.71982 22.55882 39062 ft 491 kts 130°
2026-04-20 20:43 37.70003 22.59391 39014 ft 494 kts 117°
2026-04-20 20:43 37.68549 22.63316 38777 ft 498 kts 114°
2026-04-20 20:44 37.67162 22.67336 38091 ft 501 kts 113°
2026-04-20 20:44 37.65793 22.71353 37472 ft 498 kts 113°
2026-04-20 20:44 37.64419 22.75346 36805 ft 496 kts 113°
2026-04-20 20:44 37.63031 22.79312 36154 ft 495 kts 113°
2026-04-20 20:45 37.61630 22.83261 35460 ft 494 kts 113°
2026-04-20 20:45 37.60217 22.87207 34718 ft 495 kts 113°
2026-04-20 20:45 37.58797 22.91157 33932 ft 496 kts 113°
2026-04-20 20:45 37.57372 22.95116 33098 ft 496 kts 113°
2026-04-20 20:46 37.55959 22.99037 32556 ft 489 kts 113°
2026-04-20 20:46 37.54562 23.02911 31981 ft 484 kts 113°
2026-04-20 20:46 37.53182 23.06737 31450 ft 478 kts 113°
2026-04-20 20:46 37.51817 23.10522 30891 ft 473 kts 113°
2026-04-20 20:47 37.50464 23.14267 30380 ft 468 kts 113°
2026-04-20 20:47 37.49122 23.17974 29817 ft 464 kts 112°
2026-04-20 20:47 37.48091 23.21766 29218 ft 455 kts 97°
2026-04-20 20:47 37.47930 23.25658 28677 ft 441 kts 82°
2026-04-20 20:48 37.48218 23.29456 28162 ft 434 kts 80°
2026-04-20 20:48 37.48545 23.33207 27615 ft 429 kts 79°
2026-04-20 20:48 37.48872 23.36916 27073 ft 425 kts 80°
2026-04-20 20:48 37.49186 23.40594 26533 ft 422 kts 80°
2026-04-20 20:49 37.49486 23.44246 26011 ft 419 kts 80°
2026-04-20 20:49 37.49772 23.47872 25484 ft 416 kts 80°
2026-04-20 20:49 37.50050 23.51473 24963 ft 413 kts 81°
2026-04-20 20:49 37.50321 23.55049 24449 ft 410 kts 81°
2026-04-20 20:50 37.50588 23.58604 23938 ft 407 kts 81°
2026-04-20 20:50 37.50853 23.62141 23361 ft 406 kts 81°
2026-04-20 20:50 37.51115 23.65662 22774 ft 403 kts 81°
2026-04-20 20:50 37.51374 23.69156 22222 ft 400 kts 81°
2026-04-20 20:51 37.51629 23.72617 21709 ft 396 kts 81°
2026-04-20 20:51 37.51881 23.76046 21193 ft 393 kts 81°
2026-04-20 20:51 37.52131 23.79449 20677 ft 389 kts 81°
2026-04-20 20:51 37.52378 23.82827 20168 ft 387 kts 81°
2026-04-20 20:52 37.52622 23.86180 19662 ft 384 kts 81°
2026-04-20 20:52 37.52864 23.89512 19178 ft 382 kts 81°
2026-04-20 20:52 37.53104 23.92824 18667 ft 379 kts 81°
2026-04-20 20:52 37.53341 23.96119 18118 ft 378 kts 82°
2026-04-20 20:53 37.53577 23.99403 17559 ft 376 kts 82°
2026-04-20 20:53 37.53810 24.02668 16933 ft 375 kts 82°
2026-04-20 20:53 37.54042 24.05925 16391 ft 372 kts 82°
2026-04-20 20:53 37.54270 24.09153 15873 ft 369 kts 82°
2026-04-20 20:54 37.54496 24.12353 15363 ft 366 kts 82°
2026-04-20 20:54 37.54719 24.15524 14870 ft 362 kts 83°
2026-04-20 20:54 37.54939 24.18662 14381 ft 357 kts 83°
2026-04-20 20:54 37.55154 24.21739 13900 ft 349 kts 82°
2026-04-20 20:55 37.55762 24.24649 13366 ft 342 kts 60°
2026-04-20 20:55 37.57169 24.26980 12896 ft 332 kts 38°
2026-04-20 20:55 37.59087 24.28502 12335 ft 325 kts 19°
2026-04-20 20:55 37.61241 24.29212 11813 ft 318 kts
2026-04-20 20:56 37.63431 24.29166 11344 ft 314 kts 354°
2026-04-20 20:56 37.65595 24.28928 10849 ft 312 kts 352°
2026-04-20 20:56 37.67746 24.28657 10390 ft 310 kts 353°
2026-04-20 20:56 37.69838 24.28400 10264 ft 294 kts 353°
2026-04-20 20:57 37.71820 24.28167 10117 ft 280 kts 353°
2026-04-20 20:57 37.73719 24.27951 9987 ft 269 kts 354°
2026-04-20 20:57 37.75574 24.27744 9637 ft 267 kts 354°
2026-04-20 20:57 37.77410 24.27543 9310 ft 264 kts 354°
2026-04-20 20:58 37.79232 24.27345 8958 ft 262 kts 354°
2026-04-20 20:58 37.81040 24.27149 8621 ft 260 kts 354°
2026-04-20 20:58 37.82834 24.26954 8286 ft 258 kts 354°
2026-04-20 20:58 37.84616 24.26762 7962 ft 257 kts 354°
2026-04-20 20:59 37.86386 24.26570 7636 ft 255 kts 354°
2026-04-20 20:59 37.88146 24.26380 7309 ft 254 kts 354°
2026-04-20 20:59 37.89897 24.26191 6979 ft 252 kts 354°
2026-04-20 20:59 37.91639 24.26002 6660 ft 251 kts 354°
2026-04-20 21:00 37.93376 24.25814 6326 ft 251 kts 354°
2026-04-20 21:00 37.95108 24.25627 5977 ft 250 kts 354°
2026-04-20 21:00 37.96812 24.25443 5824 ft 241 kts 354°
2026-04-20 21:00 37.98451 24.25266 5680 ft 232 kts 354°
2026-04-20 21:01 38.00018 24.25004 5474 ft 226 kts 341°
2026-04-20 21:01 38.01448 24.24227 5242 ft 220 kts 335°
2026-04-20 21:01 38.02808 24.23451 4980 ft 209 kts 335°
2026-04-20 21:01 38.04105 24.22725 4734 ft 200 kts 335°
2026-04-20 21:02 38.05354 24.22031 4475 ft 193 kts 334°
2026-04-20 21:02 38.06481 24.21191 4227 ft 185 kts 318°
2026-04-20 21:02 38.07443 24.20156 4043 ft 179 kts 319°
2026-04-20 21:02 38.08395 24.19146 3980 ft 179 kts 318°
2026-04-20 21:03 38.09343 24.18123 3889 ft 179 kts 312°
2026-04-20 21:03 38.09852 24.16739 3807 ft 174 kts 277°
2026-04-20 21:03 38.09976 24.15249 3732 ft 167 kts 276°
2026-04-20 21:03 38.10091 24.13804 3548 ft 162 kts 276°
2026-04-20 21:04 38.10200 24.12397 3383 ft 160 kts 276°
2026-04-20 21:04 38.10308 24.10995 3189 ft 160 kts 276°
2026-04-20 21:04 38.10309 24.09593 3028 ft 161 kts 250°
2026-04-20 21:04 38.09593 24.08547 3031 ft 161 kts 220°
2026-04-20 21:05 38.08702 24.07683 2999 ft 161 kts 220°
2026-04-20 21:05 38.07815 24.06829 3014 ft 161 kts 220°
2026-04-20 21:05 38.06931 24.05983 2991 ft 155 kts 220°
2026-04-20 21:05 38.06078 24.05169 2996 ft 153 kts 220°
2026-04-20 21:06 38.05257 24.04385 2976 ft 143 kts 221°
2026-04-20 21:06 38.04479 24.03643 2798 ft 138 kts 220°
2026-04-20 21:06 38.03699 24.02891 2581 ft 143 kts 221°
2026-04-20 21:06 38.02916 24.02111 2406 ft 144 kts 222°
2026-04-20 21:07 38.02114 24.01344 2186 ft 145 kts 219°
2026-04-20 21:07 38.01317 24.00606 1943 ft 141 kts 219°
2026-04-20 21:07 38.00534 23.99862 1730 ft 139 kts 219°
2026-04-20 21:07 37.99773 23.99129 1544 ft 138 kts 219°
2026-04-20 21:08 37.99008 23.98402 1329 ft 138 kts 218°
2026-04-20 21:08 37.98244 23.97673 1146 ft 136 kts 219°
2026-04-20 21:08 37.97495 23.96949 960 ft 136 kts 218°
2026-04-20 21:08 37.96731 23.96248 784 ft 136 kts 218°
2026-04-20 21:09 37.95983 23.95534 615 ft 135 kts 218°
2026-04-20 21:09 37.95237 23.94817 419 ft 134 kts 217°
2026-04-20 21:09 37.94505 23.94118 314 ft 130 kts 218°
2026-04-20 21:09 37.93871 23.93520 294 ft 87 kts 216°
2026-04-20 21:10 37.93551 23.93225 291 ft 27 kts 213°
2026-04-20 21:10 37.93416 23.93156 289 ft 20 kts 192°
2026-04-20 21:10 37.93294 23.93135 293 ft 15 kts 178°
2026-04-20 21:10 37.93264 23.93226 297 ft 14 kts 51°
2026-04-20 21:11 37.93338 23.93299 299 ft 13 kts 37°
2026-04-20 21:11 37.93411 23.93367 300 ft 13 kts 36°
2026-04-20 21:11 37.93438 23.93449 301 ft 12 kts 132°
2026-04-20 21:11 37.93383 23.93523 299 ft 11 kts 132°
2026-04-20 21:12 37.93331 23.93606 300 ft 13 kts 127°
2026-04-20 21:12 37.93274 23.93700 300 ft 14 kts 127°
2026-04-20 21:12 37.93210 23.93808 302 ft 16 kts 127°
2026-04-20 21:12 37.93145 23.93916 300 ft 15 kts 127°
2026-04-20 21:13 37.93083 23.94021 300 ft 15 kts 126°
2026-04-20 21:13 37.93024 23.94123 301 ft 14 kts 126°
2026-04-20 21:13 37.92965 23.94217 300 ft 13 kts 129°
2026-04-20 21:13 37.92909 23.94308 303 ft 13 kts 127°
2026-04-20 21:14 37.92888 23.94408 300 ft 13 kts 58°
2026-04-20 21:14 37.92955 23.94477 301 ft 12 kts 37°
2026-04-20 21:14 37.93028 23.94547 300 ft 14 kts 37°
2026-04-20 21:14 37.93111 23.94625 302 ft 16 kts 36°
2026-04-20 21:15 37.93202 23.94711 301 ft 16 kts 37°
2026-04-20 21:15 37.93290 23.94795 302 ft 16 kts 37°
2026-04-20 21:15 37.93375 23.94876 300 ft 15 kts 37°
2026-04-20 21:15 37.93457 23.94953 301 ft 14 kts 36°
2026-04-20 21:16 37.93535 23.95029 301 ft 14 kts 38°
2026-04-20 21:16 37.93609 23.95100 300 ft 13 kts 36°
2026-04-20 21:16 37.93688 23.95143 301 ft 13 kts 344°
2026-04-20 21:16 37.93766 23.95116 299 ft 12 kts 31°
2026-04-20 21:17 37.93833 23.95182 299 ft 12 kts 37°
2026-04-20 21:17 37.93877 23.95181 300 ft 7 kts 301°
2026-04-20 21:17 37.93904 23.95135 302 ft 6 kts 306°
2026-04-20 21:17 37.93914 23.95118 300 ft 0 kts 306°